Regional Weather Roundup
Issued by NWS

Home | Current Version | Previous Version | Text Only | Print | Product List | Glossary On
Versions: 1 2 3 4 5 6 7 8 9 10 11 12 13 14 15 16 17 18 19 20 21 22 23 24 25 26 27 28 29 30 31 32 33 34 35 36 37 38 39 40 41 42 43 44 45 46 47 48 49 50
618
ASUS44 KLIX 300101
RWRLA
LOUISIANA WEATHER ROUNDUP
NATIONAL WEATHER SERVICE NEW ORLEANS LA
800 PM CDT MON SEP 29 2014

NOTE: "FAIR" INDICATES FEW OR NO CLOUDS BELOW 12,000 FEET WITH NO
      SIGNIFICANT WEATHER AND/OR OBSTRUCTIONS TO VISIBILITY.
      SKY/WX - SKY CONDITION AND SIGNIFICANT WEATHER.
      TMP - AIR TEMPERATURE.    DP   - DEWPOINT TEMPERATURE.
      RH  - RELATIVE HUMIDITY.  PRES - PRESSURE.
      HX  - HEAT INDEX.         WCI  - WIND CHILL INDEX.

*  THESE STATIONS ARE NOT NWS OR FAA STATIONS AND ARE NOT UNDER
   NWS QUALITY CONTROL.

LAZ040-048-061>063-065-066-069-300200-
SOUTHEAST LOUISIANA

CITY           SKY/WX    TMP DP  RH WIND       PRES   REMARKS
N.O. AUDUBON     N/A     79  73  81 MISG        N/A
N.O. INTL ARPT PTCLDY    79  69  71 CALM      29.87R
N.O. LAKEFRONT CLEAR     79  73  82 CALM      29.88R
N.O. DOWNTOWN* FAIR      81  68  65 N3        29.88R
SLIDELL        CLEAR     76  72  87 CALM      29.87R
BATON ROUGE    CLEAR     76  72  87 CALM      29.88R
BOOTHVILLE     CLEAR     79  73  82 CALM      29.87S
BELLE CHASSE   PTCLDY    75  71  87 CALM      29.87R
BOGALUSA*      FAIR      77  72  85 CALM      29.90R
GALLIANO*      NOT AVBL
NEW ROADS*     FAIR      77  75  93 CALM      29.88R
GONZALES*      CLOUDY    76  76  99 CALM      29.87S
HAMMOND*       NOT AVBL
HOUMA*         CLOUDY   N/A N/A N/A CALM      29.88R
PORT FOURCHON* CLEAR     81  73  78 E3        29.90R

$$

LAZ041-044-053-054-300200-
SOUTHWEST LOUISIANA

CITY           SKY/WX    TMP DP  RH WIND       PRES   REMARKS
LAKE CHARLES   MOCLDY    79  73  82 NE3       29.87R
LAFAYETTE      CLOUDY    80  76  87 NE3       29.88R
PATTERSON      MOCLDY    75  73  94 CALM      29.91S
SALT POINT       N/A     79  76  90 SE5       29.87R
NEW IBERIA     CLOUDY    78  73  84 SE6       29.88R
CHENAULT AIRPK NOT AVBL

$$

LAZ027-028-300200-
CENTRAL LOUISIANA

CITY           SKY/WX    TMP DP  RH WIND       PRES   REMARKS
FORT POLK      PTCLDY    76  71  85 NE2       29.89S
ALEXANDRIA INT PTCLDY    76  71  85 CALM      29.87S
ALEXANDRIA     MOCLDY    77  72  84 CALM      29.89S

$$

LAZ001-002-300200-
NORTHWEST LOUISIANA

CITY           SKY/WX    TMP DP  RH WIND       PRES   REMARKS
SHREVEPORT     MOCLDY    80  66  62 E6        29.90R
BARKSDALE AFB  MOCLDY    80  65  59 NE2       29.90S
DTN SHREVEPORT CLOUDY    81  65  58 CALM      29.90R

$$

LAZ014-016-300200-
NORTHEAST LOUISIANA

CITY           SKY/WX    TMP DP  RH WIND       PRES   REMARKS
MONROE         MOCLDY    76  69  79 CALM      29.91R
TALLULAH       CLEAR     73  68  84 CALM      29.89R

$$




USA.gov is the U.S. government's official web portal to all federal, state and local government web resources and services.